TimeCDT,TemperatureF,Dew PointF,Humidity,Sea Level PressureIn,VisibilityMPH,Wind Direction,Wind SpeedMPH,Gust SpeedMPH,PrecipitationIn,Events,Conditions,WindDirDegrees,DateUTC
12:54 AM,79.0,66.9,66,30.04,10.0,East,8.1,-,N/A,,Overcast,90,2013-08-05 05:54:00
1:54 AM,78.1,66.9,68,30.04,10.0,East,9.2,-,N/A,,Overcast,90,2013-08-05 06:54:00
2:54 AM,78.1,66.0,66,30.03,10.0,East,5.8,-,N/A,,Overcast,100,2013-08-05 07:54:00
3:54 AM,77.0,66.9,71,30.04,10.0,East,4.6,-,0.00,Rain,Light Rain,80,2013-08-05 08:54:00
4:54 AM,75.9,66.0,71,30.04,10.0,ENE,5.8,-,0.00,,Overcast,70,2013-08-05 09:54:00
5:54 AM,73.9,66.9,79,30.02,10.0,SE,6.9,-,0.00,Rain,Light Rain,140,2013-08-05 10:54:00
6:54 AM,73.9,66.9,79,30.04,10.0,ESE,4.6,-,N/A,,Overcast,110,2013-08-05 11:54:00
7:54 AM,73.9,66.9,79,30.04,10.0,ESE,5.8,-,N/A,,Overcast,120,2013-08-05 12:54:00
8:54 AM,75.9,68.0,76,30.04,10.0,SE,4.6,-,N/A,,Overcast,140,2013-08-05 13:54:00
9:54 AM,79.0,69.1,72,30.03,10.0,SE,6.9,-,N/A,,Overcast,140,2013-08-05 14:54:00
10:54 AM,82.0,69.1,65,30.03,10.0,South,6.9,-,N/A,,Overcast,170,2013-08-05 15:54:00
11:47 AM,80.6,69.8,70,30.04,10.0,SSW,3.5,-,0.00,Thunderstorm,Thunderstorm,200,2013-08-05 16:47:00
11:54 AM,81.0,70.0,69,30.04,10.0,WNW,4.6,-,0.00,Thunderstorm,Thunderstorm,290,2013-08-05 16:54:00
12:15 PM,77.0,71.6,83,30.07,5.0,WNW,13.8,-,0.00,Rain-Thunderstorm,Light Thunderstorms and Rain,300,2013-08-05 17:15:00
12:20 PM,75.2,71.6,89,30.06,2.0,NW,9.2,20.7,0.03,Rain-Thunderstorm,Heavy Thunderstorms and Rain,320,2013-08-05 17:20:00
12:43 PM,75.2,71.6,89,30.05,2.5,Calm,Calm,-,0.11,Rain-Thunderstorm,Light Thunderstorms and Rain,0,2013-08-05 17:43:00
12:54 PM,75.9,72.0,87,30.02,4.0,Calm,Calm,-,0.13,Rain-Thunderstorm,Light Thunderstorms and Rain,0,2013-08-05 17:54:00
1:23 PM,75.2,73.4,94,30.01,7.0,East,6.9,-,0.05,Rain,Light Rain,90,2013-08-05 18:23:00
1:54 PM,78.1,73.9,87,29.99,8.0,ESE,5.8,-,0.05,,Overcast,110,2013-08-05 18:54:00
1:56 PM,78.8,73.4,83,29.99,8.0,ESE,5.8,-,N/A,Thunderstorm,Thunderstorm,110,2013-08-05 18:56:00
2:34 PM,77.0,73.4,89,30.01,5.0,NNE,17.3,23.0,0.01,Rain-Thunderstorm,Thunderstorms and Rain,20,2013-08-05 19:34:00
2:40 PM,75.2,73.4,94,30.01,1.5,East,8.1,23.0,0.07,Rain-Thunderstorm,Heavy Thunderstorms and Rain,80,2013-08-05 19:40:00
2:54 PM,77.0,73.0,88,29.99,4.0,ESE,10.4,-,0.17,Rain-Thunderstorm,Light Thunderstorms and Rain,120,2013-08-05 19:54:00
3:20 PM,78.8,73.4,83,29.98,9.0,East,6.9,-,0.00,Rain,Light Rain,100,2013-08-05 20:20:00
3:54 PM,79.0,73.9,84,29.96,8.0,ESE,4.6,-,0.00,Rain,Light Rain,120,2013-08-05 20:54:00
4:54 PM,81.0,73.9,79,29.94,10.0,SSE,5.8,-,0.00,,Overcast,150,2013-08-05 21:54:00
5:54 PM,81.0,73.9,79,29.93,10.0,South,8.1,-,N/A,,Overcast,170,2013-08-05 22:54:00
6:54 PM,80.1,73.0,79,29.93,10.0,SSE,9.2,-,N/A,,Mostly Cloudy,160,2013-08-05 23:54:00
7:54 PM,80.1,73.9,81,29.93,10.0,South,5.8,-,N/A,,Overcast,180,2013-08-06 00:54:00
8:54 PM,80.1,75.0,85,29.92,10.0,South,5.8,-,0.00,,Mostly Cloudy,170,2013-08-06 01:54:00
9:54 PM,79.0,73.9,84,29.93,10.0,South,4.6,-,N/A,,Mostly Cloudy,190,2013-08-06 02:54:00
10:54 PM,78.1,72.0,81,29.92,10.0,South,8.1,-,N/A,,Mostly Cloudy,190,2013-08-06 03:54:00
11:54 PM,78.1,72.0,81,29.91,10.0,SSW,6.9,-,N/A,,Mostly Cloudy,200,2013-08-06 04:54:00